Location: Newark
(47.5000°N, 4.6167°E)
Time: 08:22:48
(UTC+00:00)

ISS - Visible Passes

Search period start: 15 May 2021 00:00
Search period end: 25 May 2021 00:00
Orbit: 417 x 422 km, 51.6° (Epoch: 15 May)

Date Brightness Start Highest point End Pass type
(mag) Time Alt. Az. Time Alt. Az. Time Alt. Az.
15 May -2.3 00:03:44 10° WNW 00:06:56 39° N 00:10:08 10° ENE visible
15 May -3.6 01:40:40 10° WNW 01:44:03 75° NNE 01:47:26 10° ESE visible
15 May -2.6 03:17:51 10° W 03:20:36 23° SW 03:23:21 10° SSE visible
15 May -2.5 20:03:08 10° S 20:05:45 21° SE 20:08:24 10° E visible
15 May -3.7 21:38:55 10° WSW 21:42:16 80° NNW 21:45:40 10° ENE visible
15 May -2.3 23:16:10 10° WNW 23:19:22 39° N 23:22:35 10° ENE visible
16 May -3.2 00:53:12 10° WNW 00:56:33 57° NNE 00:59:53 10° E visible
16 May -3.2 02:30:10 10° WNW 02:33:17 35° SW 02:36:23 10° SSE visible
16 May -3.9 20:51:28 10° WSW 20:54:50 73° SSE 20:58:12 10° ENE visible
16 May -2.5 22:28:35 10° W 22:31:49 42° N 22:35:03 10° ENE visible
17 May -2.7 00:05:44 10° WNW 00:09:02 47° NNE 00:12:19 10° E visible
17 May -3.7 01:42:36 10° WNW 01:45:55 53° SSW 01:49:12 10° SE visible
17 May -3.6 20:04:10 10° SW 20:07:25 49° SSE 20:10:41 10° ENE visible
17 May -2.8 21:40:59 10° W 21:44:16 48° NNW 21:47:33 10° ENE visible
17 May -2.5 23:18:15 10° WNW 23:21:28 41° N 23:22:53 26° ENE visible
18 May -1.4 00:55:06 10° WNW 00:55:46 15° WNW 00:55:46 15° WNW visible
18 May -3.2 20:53:24 10° W 20:56:44 60° NNW 21:00:05 10° ENE visible
18 May -2.3 22:30:42 10° WNW 22:33:55 39° N 22:36:27 14° ENE visible
19 May -2.1 00:07:38 10° WNW 00:09:22 28° WNW 00:09:22 28° WNW visible
19 May -3.6 20:05:52 10° WSW 20:09:14 79° NNW 20:12:37 10° ENE visible
19 May -2.3 21:43:08 10° WNW 21:46:20 39° N 21:49:32 10° ENE visible
19 May -3.1 23:20:10 10° WNW 23:23:11 54° N 23:23:11 54° N visible
20 May -2.5 20:55:32 10° W 20:58:46 42° N 21:02:00 10° ENE visible
20 May -2.8 22:32:41 10° WNW 22:35:58 47° NNE 22:37:05 32° ENE visible
21 May -1.2 00:09:33 10° WNW 00:10:01 13° WNW 00:10:01 13° WNW visible
21 May -2.7 20:07:54 10° W 20:11:11 48° NNW 20:14:29 10° ENE visible
21 May -2.5 21:45:10 10° WNW 21:48:25 41° N 21:51:02 14° ENE visible
21 May -2.3 23:22:02 10° WNW 23:23:58 32° WNW 23:23:58 32° WNW visible
22 May -2.4 20:57:37 10° WNW 21:00:49 39° N 21:04:01 10° ENE visible
22 May -3.7 22:34:33 10° WNW 22:37:55 76° NNE 22:37:56 76° NNE visible
23 May -2.3 20:10:01 10° WNW 20:13:13 39° N 20:16:26 10° ENE visible
23 May -3.2 21:47:04 10° WNW 21:50:24 58° NNE 21:51:56 28° E visible
23 May -1.4 23:24:01 10° WNW 23:24:53 16° W 23:24:53 16° W visible
24 May -2.8 20:59:34 10° WNW 21:02:50 47° NNE 21:05:58 11° E visible
24 May -2.9 22:36:25 10° WNW 22:38:55 40° W 22:38:55 40° W visible
